ONEWEB-0227 (48792 NORAD) Tracking and Keplerian Element Data

This shows tracking and keplerian element data for the satellite.

Feedback or suggestion? Click here.




ElementValue
Catalog48792
NameONEWEB-0227
Epoch Orbit352
Epoch Day214.91667824
Epoch Year2021
RAAN254.8031
Inclination87.5542
Eccentricity0.000919
Argument of Perigee36.5687
Mean Anonmoly234.084
Mean Motion14.30877849
Decay Rate-0.01416263
L11 48792U 21045AB 21214.91667824 -.01416263 00000-0 -57696+0 0 9992
L22 48792 87.5542 254.8031 0009190 36.5687 234.0840 14.30877849 3522

Live tracking and technical data element details for ONEWEB-0227 (NORAD 48792). ONEWEB-0227 can be tracked NOW for your location showing map with azimuth and elevation plus other details from your city location.

Track the satellite on the map from your city or location and see movement details for azimuth, elevation, latitude, longitude, range, height, and movement on the map or in text.







IsCatalogInMostPopularTable: catalog: 48792, numindb: 18
Update: records affected: 1



GetName: 48792 ONEWEB-0227

Hit Count: updated at: Wed, 04 Aug 2021 00:34:42 GMT